This is the latest recevied weather packets stored in our database for station/object DL2GFH-3. If no packets are shown the sender has not sent any weather packets the latest 10 day(s).
| Time | Temp. | Humidity | Pressure | Rain* | Wind** | Luminosity | Snow |
|---|---|---|---|---|---|---|---|
| 1777639962 | 23.33° C | 20% | 1023.8 hPa | - | - | - | - |
| 1777639056 | 23.89° C | 19% | 1024 hPa | - | - | - | - |
| 1777638151 | 23.89° C | 19% | 1024 hPa | - | - | - | - |
| 1777637245 | 24.44° C | 19% | 1024 hPa | - | - | - | - |
| 1777636340 | 25° C | 18% | 1024 hPa | - | - | - | - |
| 1777635435 | 25° C | 18% | 1024.2 hPa | - | - | - | - |
| 1777634529 | 25.56° C | 17% | 1024.2 hPa | - | - | - | - |
| 1777633624 | 25.56° C | 17% | 1024.3 hPa | - | - | - | - |
| 1777632718 | 26.11° C | 17% | 1024.4 hPa | - | - | - | - |
| 1777631813 | 26.11° C | 16% | 1024.4 hPa | - | - | - | - |
| 1777630907 | 26.67° C | 16% | 1024.4 hPa | - | - | - | - |
| 1777630002 | 26.67° C | 15% | 1024.3 hPa | - | - | - | - |
| 1777628191 | 26.11° C | 15% | 1024.5 hPa | - | - | - | - |
| 1777627286 | 26.67° C | 15% | 1024.4 hPa | - | - | - | - |
| 1777626380 | 26.67° C | 15% | 1024.5 hPa | - | - | - | - |
| 1777625475 | 26.67° C | 15% | 1024.4 hPa | - | - | - | - |
| 1777624570 | 27.22° C | 14% | 1024.5 hPa | - | - | - | - |
| 1777623664 | 27.22° C | 14% | 1024.4 hPa | - | - | - | - |
| 1777622759 | 27.22° C | 14% | 1024.3 hPa | - | - | - | - |
| 1777621853 | 27.22° C | 14% | 1024.3 hPa | - | - | - | - |
| 1777620948 | 26.67° C | 14% | 1024.2 hPa | - | - | - | - |
| 1777620043 | 25.56° C | 15% | 1024.2 hPa | - | - | - | - |
| 1777619137 | 24.44° C | 16% | 1024.3 hPa | - | - | - | - |
| 1777618232 | 25° C | 15% | 1024.2 hPa | - | - | - | - |
| 1777617326 | 23.33° C | 16% | 1024.3 hPa | - | - | - | - |
* Rain since midnight (hover to see other rain measurements)
** Current wind speed in m/s (hover to see current wind gust speed)